Regional Weather Roundup
Issued by NWS

Home | Current Version | Previous Version | Text Only | Print | Product List | Glossary On
Versions: 1 2 3 4 5 6 7 8 9 10 11 12 13 14 15 16 17 18 19 20 21 22 23 24 25 26 27 28 29 30 31 32 33 34 35 36 37 38 39 40 41 42 43 44 45 46 47 48 49 50
000
ASUS44 KFWD 021115
RWRTX
NORTH TEXAS HOURLY WEATHER ROUNDUP
NATIONAL WEATHER SERVICE FORT WORTH TX
600 AM CDT WED SEP 02 2015

NOTE: "FAIR" INDICATES FEW OR NO CLOUDS BELOW 12,000 FEET WITH NO
SIGNIFICANT WEATHER AND/OR OBSTRUCTIONS TO VISIBILITY.

TXZ118-119-021200-
DALLAS/FORT WORTH METROPLEX

CITY           SKY/WX    TMP DP  RH WIND       PRES   REMARKS
DFW AIRPORT    CLEAR     74  68  81 S8        30.03S
DALLAS LOVE    CLEAR     75  67  76 S9        30.04S
FTW MEACHAM    CLEAR     75  68  78 S9        30.03S
DAL-EXECUTIVE  CLEAR     72  67  84 S5        30.04S
FTW-ALLIANCE   CLEAR     72  68  87 S3        30.04R
FTW-NAS-JRB    CLEAR     74  69  85 S9        30.04S
FTW-SPINKS     CLEAR     71  67  89 SE5       30.06S
ARLINGTON      CLEAR     73  66  78 SE5       30.04S
GRAND PRAIRIE  CLEAR     73  69  85 S6        30.06R
MESQUITE       CLEAR     69  67  93 SE3       30.06R
LANCASTER      CLEAR     70  65  83 CALM      30.06S
$$

TXZ091>094-102>105-117-120-121-131>134-021200-
NORTH CENTRAL TEXAS

CITY           SKY/WX    TMP DP  RH WIND       PRES   REMARKS
SHRMAN/DENISON CLEAR     72  69  90 S6        30.05S
GAINESVILLE    CLEAR     70  65  85 SE5       30.06S
BOWIE          CLEAR     70  65  85 SE5       30.04S
BRIDGEPORT     CLEAR     68  67  99 CALM      30.05S
DECATUR        CLEAR     72  65  78 S6        30.05S
DENTON         CLEAR     72  66  81 S3        30.04R
MCKINNEY       CLEAR     72  67  84 SE7       30.05R
GREENVILLE     CLEAR     70  68  94 S3        30.06S
ROCKWALL       CLEAR     71  68  90 S10       30.05R
TERRELL        CLEAR     69  67  93 CALM      30.06R
WAXAHACHIE     CLEAR     69  68  98 CALM      30.07R
CLEBURNE         N/A     70  70 100 SE7       30.06S
GRANBURY       CLEAR     73  67  81 SE6       30.05S
$$

TXZ083>090-098>101-113>116-127>130-139>142-154-155-021200-
WESTERN NORTH TEXAS

CITY           SKY/WX    TMP DP  RH WIND       PRES   REMARKS
WICHITA FALLS  CLEAR     72  66  81 S9        30.02R
WF-KICKAPOO    CLEAR     73  66  79 S7        30.03S
VERNON         CLEAR     72  60  65 S3        30.03R
ABILENE        CLEAR     72  64  76 S8        30.05R
ABILENE-DYESS  CLEAR     71  65  80 SE7       30.04R
BRECKENRIDGE   CLEAR     74  64  70 S7        30.04R
GRAHAM         CLEAR     72  67  84 CALM      30.02S
MINERAL WELLS  CLEAR     69  66  90 SE6       30.03R
STEPHENVILLE   CLEAR     68  65  88 CALM      30.08R
COMANCHE       CLEAR     68  65  89 CALM      30.06R
BROWNWOOD      PTCLDY    68  64  88 CALM      30.06S
COLEMAN        CLEAR     70  65  83 S3        30.06S
BRADY          CLEAR     70  66  88 SE3       30.06R
$$

TXZ143>147-156>162-174-175-021200-
CENTRAL TEXAS

CITY           SKY/WX    TMP DP  RH WIND       PRES   REMARKS
WACO           PTCLDY    72  69  90 S8        30.05R
WACO-MCGREGOR  PTCLDY    70  66  88 CALM      30.06R
HILLSBORO      CLEAR     69  66  89 SE6       30.06R
CORSICANA      CLEAR     71  67  87 CALM      30.06S
MEXIA          CLEAR     68  67  97 SE13      30.04S
HEARNE         CLEAR     68  67  97 CALM      30.05S
CAMERON        CLOUDY    69  68  97 CALM      30.04S
TEMPLE         PTCLDY    70  64  83 S3        30.05S
KILLEEN        CLEAR     68  66  93 S5        30.04F
KILLEEN-SKYLRK CLEAR     70  64  83 SE5       30.04S
FORT HOOD      CLEAR     69  68  96 SE5       30.03F
GATESVILLE     CLEAR     70  68  94 SE3       30.07S
HAMILTON       CLEAR     68  67  99 S6        30.06S
$$

TXZ095>097-106>112-122>126-135>138-148>153-164>167-021200-
EAST TEXAS

CITY           SKY/WX    TMP DP  RH WIND       PRES   REMARKS
PARIS          CLEAR     70  63  78 SE5       30.06S
SULPHUR SPRNGS CLEAR     73  68  86 S3        30.08R
MOUNT PLEASANT   N/A     67  67 100 CALM      30.08S VSB 1/4
MINEOLA        CLEAR     68  68 100 CALM      30.07S
TYLER          CLEAR     71  67  87 S6        30.06S
LONGVIEW       CLEAR     71  69  93 CALM      30.06R
MARSHALL       CLEAR     73  70  92 CALM      30.09S
ATHENS         CLEAR     66  66 100 CALM      30.05R
PALESTINE      CLEAR     68  67  98 CALM      30.07S
JACKSONVILLE   CLEAR     71  69  93 CALM      30.09R
HENDERSON      CLEAR     69  69  99 CALM      30.08R
CENTER         FAIR      72  69  91 CALM      30.07R
NACOGDOCHES    MOCLDY    70  68  94 CALM      30.06R
LUFKIN         CLOUDY    71  70  96 CALM      30.06R
$$

SUPPLEMENTAL OBSERVATIONS (CENTRAL)

CITY           SKY/WX    TMP DP  RH WIND       PRES   REMARKS
LAKE TEXOMA      N/A     73  68  83 CALM        N/A
CADDO GRASSLND   N/A     72  66  83 S5          N/A
PAT MAYSE LAKE   N/A     72  66  83 SE8         N/A
GREENVILLE       N/A     70  64  83 S2          N/A
CEDAR HILL       N/A     72  64  78 S6          N/A
ATHENS           N/A     72  66  83 SE5         N/A
LAKE LIMESTONE   N/A     66  63  88 CALM        N/A
MCGREGOR         N/A     72  66  83 S3          N/A
TEMPLE           N/A     70  66  88 CALM        N/A
$$

SUPPLEMENTAL OBSERVATIONS (WEST)

CITY           SKY/WX    TMP DP  RH WIND       PRES   REMARKS
MILLERS CREEK    N/A     73  64  73 S10         N/A
POSSUM KINGDOM   N/A     72  63  73 SE5         N/A
LBJ GRASSLAND    N/A     72  66  83 SE6         N/A
GRANBURY         N/A     72  66  83 SE8         N/A
HAMBY            N/A     72  63  73 S10         N/A
IVIE RESERVOIR   N/A     72  66  83 E2          N/A
COLORADO BEND    N/A     70  64  83 SW3         N/A
$$

SUPPLEMENTAL OBSERVATIONS (EAST)

CITY           SKY/WX    TMP DP  RH WIND       PRES   REMARKS
CLARKSVILLE      N/A     70  68  94 E2          N/A
TEXARKANA        N/A     66  64  94 CALM        N/A
LINDEN           N/A     68  64  88 CALM        N/A
CADDO LAKE       N/A     66  64  94 CALM        N/A
GILMER           N/A     70  68  94 CALM        N/A
HENDERSON        N/A     70  66  88 NE1         N/A
LUFKIN           N/A     72  68  88 MISG        N/A
N SABINE NF      N/A     70  66  88 MISG        N/A
S SABINE NF      N/A     70  68  94 CALM        N/A
$$

SUPPLEMENTAL OBSERVATIONS ARE A COLLECTION OF AUTOMATED INSTRUMENTS
THAT ARE MAINTAINED BY A VARIETY OF FEDERAL AND STATE AGENCIES.
CERTAIN ELEMENTS...SUCH AS HUMIDITY VALUES AND SUSTAINED WIND
SPEEDS...MAY BE APPROXIMATED.




USA.gov is the U.S. government's official web portal to all federal, state and local government web resources and services.